GW4575 Weather Reports


Display with metric or nautical units.
time (UTC)temp
F
wind
direction
speed
MPH
gust
MPH
rain 1hr
in
rain 24hr
in
rain mn
in
humidity
%
barometer
mb
20260508111334 33 208 0.0 0.0 0.00 0.00 0.00 84 1009.1
20260508110832 32 231 0.0 0.0 0.00 0.00 0.00 85 1009.0
20260508110330 33 220 0.0 0.0 0.00 0.00 0.00 84 1009.2
20260508105829 32 194 0.0 1.0 0.00 0.00 0.00 85 1009.1
20260508105325 33 213 0.0 0.0 0.00 0.00 0.00 84 1009.0
20260508104822 32 232 0.0 0.0 0.00 0.00 0.00 84 1009.1
20260508104320 32 292 0.0 0.0 0.00 0.00 0.00 87 1009.2
20260508103817 32 292 0.0 0.0 0.00 0.00 0.00 87 1009.2
20260508103314 32 293 0.0 0.0 0.00 0.00 0.00 88 1009.4
20260508102812 31 293 0.0 0.0 0.00 0.00 0.00 88 1009.4
20260508102309 31 293 0.0 0.0 0.00 0.00 0.00 88 1009.3
20260508101807 32 293 0.0 0.0 0.00 0.00 0.00 88 1009.4
20260508101304 31 293 0.0 0.0 0.00 0.00 0.00 89 1009.6
20260508100801 31 293 0.0 0.0 0.00 0.00 0.00 91 1009.4
20260508100300 31 293 0.0 0.0 0.00 0.00 0.00 91 1009.4
20260508095755 31 293 0.0 0.0 0.00 0.00 0.00 91 1009.6
20260508095253 31 293 0.0 0.0 0.00 0.00 0.00 91 1009.5
20260508094749 31 293 0.0 0.0 0.00 0.00 0.00 91 1009.6
20260508094247 30 286 1.0 1.0 0.00 0.00 0.00 91 1009.6
20260508093743 31 298 1.0 1.0 0.00 0.00 0.00 91 1009.8
20260508093241 30 259 1.0 1.0 0.00 0.00 0.00 91 1009.7
20260508092738 30 296 0.0 1.0 0.00 0.00 0.00 91 1009.8
20260508092236 31 280 0.0 1.0 0.00 0.00 0.00 90 1009.9
20260508091734 31 211 0.0 0.0 0.00 0.00 0.00 90 1009.7
20260508091231 31 216 0.0 0.0 0.00 0.00 0.00 91 1009.9
20260508090728 31 253 0.0 0.0 0.00 0.00 0.00 91 1009.9
20260508090225 31 307 0.0 1.0 0.00 0.00 0.00 90 1010.0
20260508085721 31 218 0.0 1.0 0.00 0.00 0.00 90 1009.9
20260508085219 31 337 1.0 1.0 0.00 0.00 0.00 91 1010.0
20260508084715 31 256 0.0 0.0 0.00 0.00 0.00 90 1009.9
20260508084212 31 233 0.0 0.0 0.00 0.00 0.00 91 1010.0
20260508083710 31 326 0.0 0.0 0.00 0.00 0.00 92 1010.2
20260508083207 31 324 0.0 0.0 0.00 0.00 0.00 92 1010.1
20260508082701 31 247 0.0 0.0 0.00 0.00 0.00 92 1010.1
20260508082159 31 263 0.0 1.0 0.00 0.00 0.00 91 1010.1
20260508081656 31 322 1.0 1.0 0.00 0.00 0.00 92 1010.1
20260508081153 31 325 1.0 1.0 0.00 0.00 0.00 92 1010.1
20260508080650 31 53 0.0 1.0 0.00 0.00 0.00 92 1010.1
20260508080149 31 321 0.0 0.0 0.00 0.00 0.00 91 1010.1
20260508075645 32 321 1.0 1.0 0.00 0.00 0.00 91 1010.1
20260508075142 32 309 1.0 1.0 0.00 0.00 0.00 91 1010.2
20260508074639 32 35 1.0 2.0 0.00 0.00 0.00 90 1010.2
20260508074136 32 299 0.0 0.0 0.00 0.00 0.00 90 1010.2
20260508073633 32 285 0.0 0.0 0.00 0.00 0.00 90 1010.2
20260508073131 32 312 0.0 0.0 0.00 0.00 0.00 90 1010.4
20260508072626 32 308 0.0 0.0 0.00 0.00 0.00 90 1010.3
20260508072124 32 297 0.0 1.0 0.00 0.00 0.00 90 1010.5
20260508071621 32 304 1.0 1.0 0.00 0.00 0.00 90 1010.4
20260508071120 32 340 1.0 1.0 0.00 0.00 0.00 90 1010.4
20260508070617 32 358 1.0 1.0 0.00 0.00 0.00 90 1010.5
20260508070116 32 288 0.0 0.0 0.00 0.00 0.00 90 1010.5
20260508065612 32 309 0.0 0.0 0.00 0.00 0.00 90 1010.4
20260508065110 32 247 0.0 0.0 0.00 0.00 0.00 90 1010.7
20260508064607 32 243 0.0 0.0 0.00 0.00 0.00 89 1010.4
20260508064106 32 258 0.0 0.0 0.00 0.00 0.00 90 1010.6
20260508063602 32 265 0.0 1.0 0.00 0.00 0.00 90 1010.6
20260508063100 32 208 0.0 0.0 0.00 0.00 0.00 89 1010.4
20260508062557 33 261 0.0 1.0 0.00 0.00 0.00 89 1010.8
20260508062054 33 332 1.0 1.0 0.00 0.00 0.00 89 1010.6
20260508061551 33 242 0.0 0.0 0.00 0.00 0.00 89 1010.7
20260508061048 33 254 0.0 0.0 0.00 0.00 0.00 89 1010.9
20260508060545 33 321 0.0 0.0 0.00 0.00 0.00 89 1010.8
20260508060043 33 252 0.0 0.0 0.00 0.00 0.00 89 1011.0
20260508055538 33 230 0.0 0.0 0.00 0.00 0.00 89 1011.0
20260508055035 33 244 0.0 0.0 0.00 0.00 0.00 89 1011.1
20260508054531 33 273 0.0 0.0 0.00 0.00 0.00 89 1011.2
20260508054029 33 312 1.0 1.0 0.00 0.00 0.00 89 1011.3
20260508053525 33 303 0.0 1.0 0.00 0.00 0.00 88 1011.2
20260508053024 34 200 0.0 1.0 0.00 0.00 0.00 86 1011.3
20260508052516 35 224 0.0 0.0 0.00 0.00 0.00 85 1011.3
20260508052012 35 235 0.0 0.0 0.00 0.00 0.00 85 1011.2
20260508051509 34 229 0.0 2.0 0.00 0.00 0.00 85 1011.2
20260508051003 34 265 0.0 1.0 0.00 0.00 0.00 86 1011.6
20260508050500 35 313 0.0 1.0 0.00 0.00 0.00 85 1011.4
20260508045956 35 228 0.0 1.0 0.00 0.00 0.00 84 1011.4
20260508045454 35 243 0.0 0.0 0.00 0.00 0.00 84 1011.3
20260508044951 35 247 0.0 0.0 0.00 0.00 0.00 84 1011.4
20260508044448 35 249 0.0 0.0 0.00 0.00 0.00 84 1011.1
20260508043943 35 254 0.0 0.0 0.00 0.00 0.00 84 1011.3
20260508043441 36 275 0.0 0.0 0.00 0.00 0.00 83 1011.3
20260508042937 36 255 0.0 0.0 0.00 0.00 0.00 82 1011.4
20260508042435 36 271 0.0 0.0 0.00 0.00 0.00 82 1011.6
20260508041932 36 285 1.0 2.0 0.00 0.00 0.00 82 1011.3
20260508041429 36 274 0.0 0.0 0.00 0.00 0.00 82 1011.6
20260508040926 36 259 0.0 1.0 0.00 0.00 0.00 82 1011.4
20260508040423 36 256 0.0 0.0 0.00 0.00 0.00 82 1011.6
20260508035921 36 204 1.0 1.0 0.00 0.00 0.00 82 1011.6
20260508035417 37 244 0.0 0.0 0.00 0.00 0.00 80 1011.4
20260508034914 37 241 0.0 2.0 0.00 0.00 0.00 81 1011.6
20260508034412 35 268 1.0 3.0 0.00 0.00 0.00 86 1011.7
20260508033908 35 266 0.0 2.0 0.00 0.00 0.00 86 1011.3
20260508033406 35 187 1.0 1.0 0.00 0.00 0.00 86 1011.6
20260508032904 35 219 0.0 0.0 0.00 0.00 0.00 85 1011.6
20260508032401 36 225 0.0 0.0 0.00 0.00 0.00 85 1011.7
20260508031857 36 256 0.0 1.0 0.00 0.00 0.00 84 1011.8
20260508031354 36 232 0.0 2.0 0.00 0.00 0.00 85 1011.8
20260508030844 36 225 1.0 1.0 0.00 0.00 0.00 85 1011.8
20260508030342 36 234 0.0 0.0 0.00 0.00 0.00 84 1011.8
20260508025838 37 241 1.0 1.0 0.00 0.00 0.00 82 1011.8
20260508025336 36 262 0.0 2.0 0.00 0.00 0.00 83 1011.6
20260508024832 36 305 1.0 2.0 0.00 0.00 0.00 86 1011.9
20260508024328 36 218 1.0 1.0 0.00 0.00 0.00 86 1011.8
20260508023825 36 233 0.0 1.0 0.00 0.00 0.00 86 1011.8
20260508023317 36 281 0.0 0.0 0.00 0.00 0.00 85 1011.9
20260508022813 36 196 0.0 0.0 0.00 0.00 0.00 85 1011.8
20260508022309 36 127 0.0 0.0 0.00 0.00 0.00 85 1011.9
20260508021806 37 248 0.0 1.0 0.00 0.00 0.00 84 1011.8
20260508021301 37 275 0.0 2.0 0.00 0.00 0.00 83 1011.9
20260508020758 37 286 2.0 2.0 0.00 0.00 0.00 84 1011.8
20260508020256 37 271 0.0 0.0 0.00 0.00 0.00 84 1011.8
20260508015753 37 276 2.0 2.0 0.00 0.00 0.00 83 1011.7
20260508015250 37 244 2.0 2.0 0.00 0.00 0.00 83 1011.8
20260508014747 38 276 1.0 2.0 0.00 0.00 0.00 83 1011.8
20260508014244 38 241 1.0 2.0 0.00 0.00 0.00 83 1011.4
20260508013740 38 268 0.0 2.0 0.00 0.00 0.00 83 1011.6
20260508013236 38 260 0.0 0.0 0.00 0.00 0.00 81 1011.4
20260508012734 38 277 1.0 6.0 0.00 0.00 0.00 81 1011.3
20260508012230 39 219 3.0 3.0 0.00 0.00 0.00 80 1011.3
20260508011729 39 283 2.0 3.0 0.00 0.00 0.00 80 1011.2
20260508011226 39 226 2.0 3.0 0.00 0.00 0.00 80 1011.2
20260508010722 39 252 3.0 4.0 0.00 0.00 0.00 79 1011.2
20260508010221 39 256 1.0 2.0 0.00 0.00 0.00 78 1011.2
20260508005718 39 278 0.0 4.0 0.00 0.00 0.00 77 1011.1
20260508005215 40 235 4.0 7.0 0.00 0.00 0.00 76 1011.3
20260508004710 40 284 2.0 7.0 0.00 0.00 0.00 75 1011.3
20260508004206 41 260 3.0 10.0 0.00 0.00 0.00 74 1011.3
20260508003703 41 269 5.0 10.0 0.00 0.00 0.00 73 1011.2
20260508003201 41 296 4.0 6.0 0.00 0.00 0.00 72 1011.2
20260508002657 41 307 3.0 6.0 0.00 0.00 0.00 72 1011.1
20260508002155 42 281 4.0 6.0 0.00 0.00 0.00 70 1011.2
20260508001650 42 306 3.0 6.0 0.00 0.00 0.00 70 1011.4
20260508001146 42 230 5.0 7.0 0.00 0.00 0.00 69 1011.4
20260508000642 41 287 2.0 6.0 0.00 0.00 0.00 69 1011.3
20260508000139 42 195 2.0 6.0 0.00 0.00 0.00 69 1011.3
20260507235635 42 265 6.0 7.0 0.00 0.00 0.00 69 1011.2
20260507235133 42 274 3.0 3.0 0.00 0.00 0.00 67 1011.2
20260507234630 42 264 7.0 10.0 0.00 0.00 0.00 67 1011.3
20260507234126 42 268 3.0 8.0 0.00 0.00 0.00 65 1011.3
20260507233623 43 291 7.0 11.0 0.00 0.00 0.00 64 1011.3
20260507233121 43 211 5.0 9.0 0.00 0.00 0.00 61 1011.1
20260507232618 43 235 5.0 11.0 0.00 0.00 0.00 61 1011.1
20260507232115 43 305 7.0 11.0 0.00 0.00 0.00 61 1011.2
20260507231611 43 295 5.0 9.0 0.00 0.00 0.00 59 1011.3
20260507231109 43 270 4.0 9.0 0.00 0.00 0.00 58 1011.3
20260507230605 43 299 6.0 9.0 0.00 0.00 0.00 57 1011.3
20260507225556 45 310 9.0 10.0 0.00 0.00 0.00 51 1011.1
20260507225053 46 306 7.0 14.0 0.00 0.00 0.00 50 1011.1
20260507224549 47 321 8.0 11.0 0.00 0.00 0.00 48 1011.1
20260507224046 47 332 9.0 11.0 0.00 0.00 0.00 47 1011.0
20260507223542 48 299 4.0 9.0 0.00 0.00 0.00 47 1011.0
20260507223039 47 267 4.0 7.0 0.00 0.00 0.00 44 1010.9
20260507222536 46 270 4.0 9.0 0.00 0.00 0.00 45 1011.0
20260507222033 46 301 4.0 11.0 0.00 0.00 0.00 45 1010.9
20260507221529 46 294 4.0 16.0 0.00 0.00 0.00 44 1010.8
20260507221026 48 279 7.0 11.0 0.00 0.00 0.00 42 1011.0
20260507220523 46 288 4.0 10.0 0.00 0.00 0.00 44 1011.0
20260507220021 46 285 4.0 10.0 0.00 0.00 0.00 43 1011.0
20260507215516 46 291 6.0 10.0 0.00 0.00 0.00 43 1010.8
20260507215015 47 197 5.0 11.0 0.00 0.00 0.00 41 1010.9
20260507214511 48 348 5.0 11.0 0.00 0.00 0.00 41 1010.7
20260507214007 47 283 5.0 9.0 0.00 0.00 0.00 41 1010.8
20260507213504 48 284 8.0 15.0 0.00 0.00 0.00 40 1010.8
20260507213000 48 255 6.0 14.0 0.00 0.00 0.00 39 1010.9
20260507212456 48 253 5.0 8.0 0.00 0.00 0.00 42 1010.7
20260507211953 48 50 8.0 11.0 0.00 0.00 0.00 41 1010.8
20260507211450 48 262 8.0 14.0 0.00 0.00 0.00 39 1010.9
20260507210947 48 313 8.0 11.0 0.00 0.00 0.00 38 1010.9
20260507210444 47 275 6.0 14.0 0.00 0.00 0.00 42 1010.8
20260507205941 48 296 8.0 14.0 0.00 0.00 0.00 39 1010.7
20260507205438 50 314 7.0 11.0 0.00 0.00 0.00 39 1010.7
20260507204934 48 294 5.0 11.0 0.00 0.00 0.00 41 1010.7
20260507204431 50 287 6.0 15.0 0.00 0.00 0.00 39 1010.7
20260507203928 48 269 5.0 10.0 0.00 0.00 0.00 42 1010.7
20260507203426 47 295 6.0 13.0 0.00 0.00 0.00 40 1010.8
20260507202922 47 261 9.0 13.0 0.00 0.00 0.00 40 1010.8
20260507202418 48 266 10.0 13.0 0.00 0.00 0.00 40 1010.7
20260507201914 47 280 4.0 15.0 0.00 0.00 0.00 43 1010.9
20260507201409 48 289 8.0 16.0 0.00 0.00 0.00 40 1011.0
20260507200906 48 334 10.0 17.0 0.00 0.00 0.00 42 1010.9
20260507200402 48 251 4.0 9.0 0.00 0.00 0.00 46 1010.9
20260507195858 48 273 7.0 13.0 0.00 0.00 0.00 44 1011.0
20260507195356 47 256 10.0 13.0 0.00 0.00 0.00 45 1010.9
20260507194853 49 296 3.0 10.0 0.00 0.00 0.00 49 1011.0
20260507194349 48 301 4.0 9.0 0.00 0.00 0.00 49 1011.1
20260507193845 48 321 9.0 10.0 0.00 0.00 0.00 45 1011.3
20260507193343 47 287 4.0 11.0 0.00 0.00 0.00 48 1011.2
20260507192839 48 292 4.0 10.0 0.00 0.00 0.00 45 1011.1
20260507192335 47 234 7.0 18.0 0.00 0.00 0.00 44 1011.4
20260507191832 47 274 9.0 11.0 0.00 0.00 0.00 49 1011.3
20260507191328 47 260 6.0 13.0 0.00 0.00 0.00 49 1011.2
20260507190825 48 313 6.0 11.0 0.00 0.00 0.00 49 1011.4
20260507190323 48 312 4.0 14.0 0.00 0.00 0.00 47 1011.1
20260507185822 47 247 4.0 8.0 0.00 0.00 0.00 46 1011.3
20260507185318 47 250 9.0 10.0 0.00 0.00 0.00 49 1011.4
20260507184816 46 268 11.0 15.0 0.00 0.00 0.00 48 1011.3
20260507184314 46 262 8.0 14.0 0.00 0.00 0.00 49 1011.6
20260507183810 46 284 5.0 13.0 0.00 0.00 0.00 50 1011.4
20260507183307 47 292 9.0 11.0 0.00 0.00 0.00 47 1011.4
20260507182805 45 279 4.0 10.0 0.00 0.00 0.00 49 1011.6
20260507182301 44 294 4.0 11.0 0.00 0.00 0.00 50 1011.6
20260507181757 46 233 6.0 18.0 0.00 0.00 0.00 47 1011.3
20260507181253 44 283 7.0 16.0 0.00 0.00 0.00 48 1011.7
20260507180750 44 297 6.0 16.0 0.00 0.00 0.00 48 1011.4
20260507180247 45 305 9.0 13.0 0.00 0.00 0.00 48 1011.4
20260507175742 43 270 7.0 15.0 0.00 0.00 0.00 52 1011.7
20260507175239 42 314 12.0 16.0 0.00 0.00 0.00 51 1011.4
20260507174736 43 278 5.0 7.0 0.00 0.00 0.00 51 1011.8
20260507174235 43 228 7.0 11.0 0.00 0.00 0.00 52 1011.9
20260507173732 43 303 7.0 15.0 0.00 0.00 0.00 53 1011.7
20260507173228 43 295 5.0 11.0 0.00 0.00 0.00 56 1011.9
20260507172725 44 231 5.0 10.0 0.00 0.00 0.00 54 1012.0
20260507172222 42 299 5.0 13.0 0.00 0.00 0.00 56 1011.8
20260507171722 43 302 5.0 7.0 0.00 0.00 0.00 58 1012.0
20260507171220 44 280 4.0 9.0 0.00 0.00 0.00 55 1011.9
20260507170716 42 275 4.0 9.0 0.00 0.00 0.00 58 1012.0
20260507170213 43 296 4.0 6.0 0.00 0.00 0.00 58 1012.1
20260507165709 43 296 4.0 8.0 0.00 0.00 0.00 60 1011.9
20260507165205 44 267 4.0 6.0 0.00 0.00 0.00 58 1012.0
20260507164701 43 268 6.0 11.0 0.00 0.00 0.00 57 1012.1
20260507164159 43 271 6.0 9.0 0.00 0.00 0.00 58 1012.3
20260507163656 43 251 5.0 8.0 0.00 0.00 0.00 59 1012.4
20260507163154 42 258 2.0 4.0 0.00 0.00 0.00 59 1012.5
20260507162649 42 266 4.0 7.0 0.00 0.00 0.00 60 1012.6
20260507162146 40 284 2.0 4.0 0.00 0.00 0.00 62 1012.7
20260507161642 40 289 3.0 9.0 0.00 0.00 0.00 60 1012.7
20260507161138 41 296 4.0 4.0 0.00 0.00 0.00 59 1012.9
20260507160635 41 274 4.0 6.0 0.00 0.00 0.00 58 1012.8
20260507160132 41 292 4.0 7.0 0.00 0.00 0.00 57 1012.6
20260507155627 41 314 4.0 9.0 0.00 0.00 0.00 57 1012.8
20260507155124 41 270 7.0 8.0 0.00 0.00 0.00 55 1013.0
20260507154621 41 308 2.0 6.0 0.00 0.00 0.00 55 1012.8
20260507154118 41 268 8.0 10.0 0.00 0.00 0.00 53 1012.8
20260507153614 41 336 5.0 9.0 0.00 0.00 0.00 53 1012.8
20260507153111 43 277 5.0 6.0 0.00 0.00 0.00 51 1012.8
20260507152607 43 297 3.0 8.0 0.00 0.00 0.00 53 1012.7
20260507152103 42 293 4.0 7.0 0.00 0.00 0.00 52 1012.7
20260507151559 41 320 3.0 6.0 0.00 0.00 0.00 54 1012.6
20260507151057 41 268 1.0 3.0 0.00 0.00 0.00 56 1012.7
20260507150554 40 320 4.0 7.0 0.00 0.00 0.00 54 1012.7
20260507150050 40 15 4.0 6.0 0.00 0.00 0.00 55 1012.7
20260507145545 41 298 8.0 11.0 0.00 0.00 0.00 55 1012.8
20260507145044 41 350 5.0 11.0 0.00 0.00 0.00 55 1012.9
20260507144540 41 304 4.0 10.0 0.00 0.00 0.00 56 1012.8
20260507144038 41 264 6.0 13.0 0.00 0.00 0.00 56 1012.8
20260507143534 42 297 4.0 8.0 0.00 0.00 0.00 58 1013.0
20260507143032 42 329 3.0 10.0 0.00 0.00 0.00 59 1012.7
20260507142527 41 263 3.0 8.0 0.00 0.00 0.00 60 1012.7
20260507142024 41 220 2.0 8.0 0.00 0.00 0.00 60 1012.8
20260507141520 40 356 3.0 10.0 0.00 0.00 0.00 62 1012.8
20260507141017 40 295 4.0 7.0 0.00 0.00 0.00 60 1013.0
20260507140514 39 259 6.0 11.0 0.00 0.00 0.00 63 1012.8
20260507140012 41 306 3.0 10.0 0.00 0.00 0.00 65 1012.7
20260507135508 40 28 2.0 8.0 0.00 0.00 0.00 67 1012.6
20260507135006 40 260 5.0 9.0 0.00 0.00 0.00 68 1012.8
20260507134502 40 262 5.0 7.0 0.00 0.00 0.00 71 1012.7
20260507133958 38 299 5.0 6.0 0.00 0.00 0.00 74 1012.8
20260507133454 38 309 6.0 9.0 0.00 0.00 0.00 74 1013.0
20260507132953 38 303 2.0 7.0 0.00 0.00 0.00 75 1012.9
20260507132448 37 278 2.0 8.0 0.00 0.00 0.00 77 1012.9
20260507131945 37 290 4.0 4.0 0.00 0.00 0.00 79 1013.0
20260507131442 36 270 2.0 6.0 0.00 0.00 0.00 78 1013.0
20260507130939 36 276 4.0 4.0 0.00 0.00 0.00 79 1012.9
20260507130436 37 268 3.0 6.0 0.00 0.00 0.00 79 1013.1
20260507125935 37 277 2.0 6.0 0.00 0.00 0.00 78 1012.9
20260507125432 36 262 4.0 6.0 0.00 0.00 0.00 79 1013.1
20260507124930 36 285 5.0 7.0 0.00 0.00 0.00 78 1013.1
20260507124425 36 302 4.0 6.0 0.00 0.00 0.00 78 1012.8
20260507123924 36 290 3.0 3.0 0.00 0.00 0.00 77 1013.1
20260507123421 36 268 1.0 4.0 0.00 0.00 0.00 77 1012.9
20260507122917 36 252 2.0 3.0 0.00 0.00 0.00 78 1012.9
20260507122413 36 256 4.0 6.0 0.00 0.00 0.00 79 1012.9
20260507121909 36 267 1.0 2.0 0.00 0.00 0.00 79 1013.0
20260507121404 36 317 3.0 4.0 0.00 0.00 0.00 79 1012.9
20260507120901 36 270 2.0 6.0 0.00 0.00 0.00 80 1012.9
20260507120358 36 264 2.0 4.0 0.00 0.00 0.00 81 1012.8
20260507115854 35 241 3.0 4.0 0.00 0.00 0.00 80 1012.9
20260507115350 35 271 0.0 2.0 0.00 0.00 0.00 81 1013.0
20260507114846 35 267 0.0 3.0 0.00 0.00 0.00 80 1012.8
20260507114343 35 298 2.0 2.0 0.00 0.00 0.00 80 1012.5
20260507113840 35 268 1.0 2.0 0.00 0.00 0.00 80 1012.5
20260507113337 35 265 0.0 3.0 0.00 0.00 0.00 80 1012.5
20260507112835 35 276 2.0 3.0 0.00 0.00 0.00 80 1012.7
20260507112332 35 291 2.0 3.0 0.00 0.00 0.00 80 1012.5
20260507111830 35 267 2.0 6.0 0.00 0.00 0.00 80 1012.6